Starlink 30208

operational
NORAD ID: 57415 Int'l Des: 2023-102 Owner: SPXS Country: US Constellation: starlink
LEOCIRCULAR

关于 Starlink 30208

正在加载描述...

实时位置

正在加载3D地球...

即将过境

高度历史

Altitude vs Time

uPlot chart will show altitude changes over time

两行轨道根数

1 57415U 23102M 26037.07684906 .00000681 00000-0 65450-4 0 9997
2 57415 43.0033 60.4176 0001166 268.3637 91.7071 15.02534219141430
Epoch: Feb 6, 2026 • Age: 12 hours

当前状态

高度 568.0 km
速度 7.58 km/s
星下点 -33.84°S, 64.19°W
发射日期 Jul 19, 2023
运行时间 2.5 years
类型 internet

技术详情

分类 Payload
质量 730.00 kg
干质量 700.00 kg
总质量 730.00 kg
长度 0.30 m
直径 4.10 m
跨度 29.00 m
形状 Box + pan
制造商 SPXS
平台类型 Starlink V2M
阶段状态 In Orbit
所有者/国家 SPXS/US

大型星座

Loading constellations...